Regional Weather Roundup
Issued by NWS

Home | Current Version | Previous Version | Graphics & Text | Print | Product List | Glossary On
Versions: 1 2 3 4 5 6 7 8 9 10 11 12 13 14 15 16 17 18 19 20 21 22 23 24 25 26 27 28 29 30 31 32 33 34 35 36 37 38 39 40 41 42 43 44 45 46 47 48 49 50
000
ASUS43 KDMX 281507
RWRIA

WEATHER ROUNDUP FOR IOWA
NATIONAL WEATHER SERVICE DES MOINES IA
1000 AM CDT THU AUG 28 2014

NOTE: "FAIR" INDICATES FEW OR NO CLOUDS BELOW 12,000 FEET WITH NO
SIGNIFICANT WEATHER AND/OR OBSTRUCTIONS TO VISIBILITY.

* - THESE STATIONS ARE NOT NWS STATIONS...THUS NOT UNDER NWS
QUALITY CONTROL.  THEY ALSO DO NOT REPORT WEATHER SUCH
AS PRECIPITATION OR FOG.

IAZ001>003-012>014-020>022-031>034-043>046-281600-
   NORTHWEST IOWA

CITY           SKY/WX    TMP DP  RH WIND       PRES   REMARKS
CARROLL *      LGT RAIN  68  68 100 SE9G17    29.98F
DENISON *      CLOUDY    70  70 100 SE15G23   29.94S
LE MARS *      CLOUDY    68  68 100 SE9       29.95S
ORANGE CITY *  DRIZZLE   70  66  88 SE7       29.96S
SHELDON *      PTSUNNY   66  66 100 E7        29.97S
SIOUX CITY     CLOUDY    71  68  90 SE10      29.93F
SPENCER        LGT RAIN  66  64  93 SE10      29.99F
STORM LAKE *   LGT RAIN  66  66 100 SE12      29.99R
$$

IAZ055>058-069>071-079>083-090>094-281600-
   SOUTHWEST IOWA

CITY           SKY/WX    TMP DP  RH WIND       PRES   REMARKS
ATLANTIC *     DRIZZLE   70  68  94 SE7G13    29.98S
AUDUBON *      LGT RAIN  72  70  94 SE9       30.00S
CLARINDA *     MOSUNNY   72  72 100 CALM      30.01S
COUNCIL BLFS * CLOUDY    70  70 100 SE17      29.94F
CRESTON *      LGT RAIN  68  68 100 CALM      30.04R
HARLAN  *      CLOUDY    70  70 100 VRB5G13   30.01F
LAMONI         LGT RAIN  70  69  97 SE9       30.00R FOG
RED OAK *      CLOUDY    70  70 100 CALM      29.99R FOG
SHENANDOAH *   LGT RAIN  72  70  94 SE12      29.99S VSB 1/2
$$

IAZ047>049-059>061-072>074-084-281600-
   CENTRAL IOWA

CITY           SKY/WX    TMP DP  RH WIND       PRES   REMARKS
AMES           LGT RAIN  66  66 100 E9        30.03S FOG
ANKENY *       LGT RAIN  66  66 100 E8G14     30.01F
CHARITON *     CLOUDY    70  68  94 VRB5G17   30.02F FOG
DES MOINES     RAIN      67  65  93 SE8       30.02F FOG
GRINNELL*      LGT RAIN  66  64  94 E8        30.04F
KNOXVILLE *    LGT RAIN  68  66  94 E13       30.01R
MARSHALLTOWN   LGT RAIN  66  65  96 E10       30.05S
PELLA *        DRIZZLE   66  66 100 NE3       30.03F
PERRY *        RAIN      66  66 100 SE8       30.02R
$$

IAZ004>006-015-016-023>025-035-036-281600-
   NORTH CENTRAL IOWA

CITY           SKY/WX    TMP DP  RH WIND       PRES   REMARKS
ALGONA *       CLOUDY    64  64 100 SE10G18   30.01F FOG
CLARION *      LGT RAIN  64  64 100 E13       30.02F
ESTHERVILLE    LGT RAIN  64  63  96 E9        30.00F FOG
FORT DODGE *   CLOUDY    64  63  94 SE13G18   30.00F
MASON CITY     LGT RAIN  64  63  96 SE8       30.08S FOG
FOREST CITY *  RAIN      63  63 100 E8        30.05F
IOWA FALLS *   RAIN      64  63  94 E7        30.06F
$$

IAZ007>011-017>019-026>030-037>042-050>054-066-281600-
   NORTHEAST IOWA

CITY           SKY/WX    TMP DP  RH WIND       PRES   REMARKS
CEDAR RAPIDS   CLOUDY    68  61  78 SE8       30.07S
CHARLES CITY * LGT RAIN  64  63  94 SE7       30.09S
CLINTON *      PTSUNNY   70  61  73 SE12      30.12F
DECORAH *      CLOUDY    64  63  94 SE6       30.10S
DUBUQUE        PTSUNNY   68  61  78 SE10      30.12S
MONTICELLO *   CLOUDY    70  63  78 SE8G16    30.10R
OELWEIN *      CLOUDY    64  63  94 SE9       30.10S FOG
WATERLOO       LGT RAIN  65  62  90 SE8       30.07S
$$

IAZ064-065-067-068-078-281600-
   EAST CENTRAL IOWA

CITY           SKY/WX    TMP DP  RH WIND       PRES   REMARKS
DAVENPORT      PTSUNNY   69  61  75 SE14      30.09S
IOWA CITY      CLOUDY    69  61  75 E6        30.08S
MT. PLEASANT * CLOUDY    72  61  68 E9        30.06S
MUSCATINE *    CLOUDY    72  59  64 SE8       30.07S
QUAD CITIES    PTSUNNY   71  61  70 E13       30.08S
$$

IAZ062-063-075>077-085>089-095>099-281600-
   SOUTHEAST IOWA

CITY           SKY/WX    TMP DP  RH WIND       PRES   REMARKS
BURLINGTON     PTSUNNY   71  63  75 SE8       30.06S
FAIRFIELD *    DRIZZLE   70  66  88 NE7       30.05F
FORT MADISON * SUNNY     73  66  78 E8        30.06S
KEOKUK *       PTSUNNY   73  70  88 E8        30.04S
OSKALOOSA *    LGT RAIN  68  66  94 E6        30.05S
CENTERVILLE *  CLOUDY    70  70 100 SE8       30.02F
OTTUMWA        LGT RAIN  68  67  96 E7        30.04S FOG
WASHINGTON *   CLOUDY    70  64  83 SE7       30.07R
$$

ABBREVIATIONS USED IN REMARKS
   TC - TEMPERATURES IN CELSIUS
  WCI - WIND CHILL INDEX
   HX - HEAT INDEX
  VSB - VISIBILITY
$$




USA.gov is the U.S. government's official web portal to all federal, state and local government web resources and services.